Torna al catalogo

METEOR 2-8 DEB

AttivoPO
NORAD 36858·DEBRIS·🇷🇺 Russia

Lanciato Mar 25, 1982 da Plesetsk Cosmodrome

Loading…

Prossimi Passaggi (prossime 24 ore)

TLE

AggiornatoSource: Space-Track

Epoca: Sep 13, 2026, 10:38 UTC

1 36858U 82025AV  26256.44355976  .00003781  00000-0  15781-2 0  9994
2 36858  82.5165 146.5416 0043734 317.1210  42.6565 14.25496113 55736

Traccia METEOR 2-8 DEB in tempo reale con AllMySat

Download on the App Store